Tracking 34717 objects as of 14-Jul-2026
HD Live streaming from Space Station
objects crossing your sky now

STARLINK-2041

Track STARLINK-2041 now!
10-day predictions
STARLINK-2041 is classified as:


NORAD ID: 47657
Int'l Code: 2021-012AP
Perigee: 312.2 km
Apogee: 322.6 km
Inclination: 53.1 °
Period: 90.7 minutes
Semi major axis: 6688 km
RCS: Unknown
Launch date: February 16, 2021
Source: United States (US)
Launch site: AIR FORCE EASTERN TEST RANGE (AFETR)
Your satellite tracking list
Your tracking list is empty




NASA's NSSDC Master Catalog

Two Line Element Set (TLE):
1 47657U 21012AP  26195.25001156  .00140393  00000-0  52104-3 0  9993
2 47657  53.1477 161.5729 0007791  48.1133 307.7119 15.87146893  6009
Source of the keplerian elements: AFSPC